User: anonymous   Login
Location: Key Biscayne
(25.6930°N, 80.1630°W)
Time: 16:41:07
(UTC-05:00)
Language:

CZ-2D R/B - Orbit

View from above orbital plane
View from above orbital plane
View from above satellite
View from above satellite

Ground track
Ground track

The orbit data is extracted from the following two-line orbital elements,

1 28738U 05024B   14352.14698921  .00003517  00000-0  23293-3 0  9273
2 28738 097.6107 025.7103 0011610 250.8774 109.1197 15.07922907518172
Epoch (UTC): 18 December 2014 03:31:39
Eccentricity: 0.0011610
inclination: 97.6107°
perigee height: 534 km
apogee height: 550 km
right ascension of ascending node: 25.7103°
argument of perigee: 250.8774°
revolutions per day: 15.07922907
mean anomaly at epoch: 109.1197°
orbit number at epoch: 51817

The dashed part of the orbit path shows where the satellite is in the earth's shadow,  

DLR